Location: Holyhead Bay
(53.3667°N, 4.6667°W)
Time: 06:33:18
(UTC+00:00)

Cosmos 2369 Rocket - Pass Details

Date: 24 November 2020
Orbit: 829 x 852 km, 71.0° (Epoch: 23 January)

Event Time Altitude Azimuth Distance (km) Brightness Sun altitude
Rises 17:50:52 0° 327° (NNW) 3,431 5.6 -14.4°
Reaches altitude 10° 17:53:34 10° 337° (NNW) 2,491 4.7 -14.8°
Maximum altitude 17:58:46 35° 42° (NE) 1,357 2.9 -15.5°
Enters shadow 18:01:17 24° 87° (E) 1,688 3.2 -15.9°
